Regional Weather Roundup
Issued by NWS Spokane, WA

Home | Current Version | Previous Version | Text Only | Print | Product List | Glossary On
Versions: 1 2 3 4 5 6 7 8 9 10 11 12 13 14 15 16 17 18 19 20 21 22 23 24 25 26 27 28 29 30 31 32 33 34 35 36 37 38 39 40 41 42 43 44 45 46 47 48 49 50
731
NZUS01 KOTX 291210
RWROTX
EASTERN WASHINGTON/NORTHERN IDAHO ROUNDUP
NATIONAL WEATHER SERVICE, SPOKANE WA
500 AM PDT FRI JUL 29 2016

Note: "fair" indicated few or no clouds below 12,000 feet with no
significant weather and/or obstructions to visibility.

...NORTHEAST WASHINGTON AND NORTHERN IDAHO PANHANDLE...

CITY           SKY/WX    TMP DP  RH WIND       PRES   REMARKS
SPOKANE INTL   PTCLDY    69  51  52 E6        30.00R
SPOKANE DOWNTO CLEAR     64  53  67 NE3       29.99S
COEUR D ALENE  CLEAR     63  52  67 E6        29.99S
DEER PARK      CLEAR     61  51  70 MISG      30.00S
SANDPOINT      CLEAR     54  52  94 CALM      30.02S
BONNERS FERRY    N/A     59  52  77 CALM      30.05R

...SOUTHEAST WASHINGTON AND SOUTHERN IDAHO PANHANDLE...

CITY           SKY/WX    TMP DP  RH WIND       PRES   REMARKS
WALLA WALLA    CLEAR     71  49  45 E7        29.92S
PULLMAN/MOSCOW CLEAR     57  49  74 CALM      30.02R
LEWISTON       CLEAR     72  53  51 NE3       29.95R
LOWELL           N/A     60  56  86 NW3       30.03R

...COLUMBIA BASIN...

CITY           SKY/WX    TMP DP  RH WIND       PRES   REMARKS
EPHRATA        CLEAR     78  54  43 N8        29.91S
MOSES LAKE     CLEAR     66  50  56 CALM      29.92S
TRI CITIES     CLEAR     62  56  80 CALM      29.89S
HERMISTON      CLEAR     64  51  62 SE5       29.90R
PENDLETON      CLEAR     67  48  50 S6        29.94S

...EAST SLOPES CASCADES...

CITY           SKY/WX    TMP DP  RH WIND       PRES   REMARKS
THE DALLES     CLEAR     72  58  61 W3        29.90S
YAKIMA         CLEAR     72  46  39 NW6       29.94S
ELLENSBURG     CLEAR     63  51  65 NE6       29.98S
STAMPEDE PASS  CLEAR     58  49  72 VRB6      30.14S
WENATCHEE      CLEAR     73  56  54 W8        29.95S
OMAK           CLEAR     72  51  47 N12       29.95S

...SOUTHERN BRITISH COLUMBIA...

CITY           SKY/WX    TMP DP  RH WIND       PRES   REMARKS
PENTICTON      PTCLDY    63  54  72 N3        29.98R
CRANBROOK      PTCLDY    61  46  59 W3        30.10R

...WESTERN MONTANA...

CITY           SKY/WX    TMP DP  RH WIND       PRES   REMARKS
MISSOULA       CLOUDY    62  50  64 SE3       30.09R

...NEIGHBORING CITIES...

CITY           SKY/WX    TMP DP  RH WIND       PRES   REMARKS
SEATTLE        CLEAR     63  60  90 NW3       30.03S
CALGARY        PTCLDY    55  50  82 CALM      30.10S



USA.gov is the U.S. government's official web portal to all federal, state and local government web resources and services.